Location: Brunsen
(51.8651°N, 9.8610°E)
Time: 20:02:04
(UTC+00:00)

CZ-2C R/B - Pass Details

Date: 11 August 2024
Orbit: 782 x 869 km, 98.3° (Epoch: 07 September)

Event Time Altitude Azimuth Distance (km) Brightness Sun altitude
Exits shadow 00:30:16 21° 137° (SE) 1,822 4.1 -21.5°
Maximum altitude 00:33:50 55° 68° (ENE) 1,017 3.3 -21.4°
Drops below altitude 10° 00:39:07 10° 352° (N) 2,450 6.0 -21.1°
Sets 00:41:30 0° 348° (NNW) 3,375 6.8 -21.0°
